Location: Schommer Observatory
(40.5200°N, 74.4500°W)
Time: 06:25:25
(UTC-04:00)

Amateur Radio Satellites - All Passes

Search period start: 21 July 2017 05:55
Search period end: 22 July 2017 05:55
Location: Schommer Observatory, 40.5200°N, 74.4500°W

Satellite Date Start Highest point End Downlink Frequencies (MHz)
Time Altitude Azimuth
DOVE 4 21 Jul 06:05:11 06:10:17 45° 98° (E) 06:15:13 437.250
XW-2C 21 Jul 06:08:13 06:10:14 14° 92° (E) 06:12:15 145.795 - 145.815
nSIGHT-1 21 Jul 06:13:32 06:16:13 24° 226° (SW) 06:18:52 .
STARS 21 Jul 06:23:14 06:27:04 29° 263° (W) 06:30:56 437.465
YUBILEINY 21 Jul 06:24:33 06:33:13 58° 78° (ENE) 06:41:45 435.215
LilacSat-2 21 Jul 06:25:12 06:28:19 24° 96° (E) 06:31:25 437.200
CUTE-I 21 Jul 06:27:40 06:32:02 25° 94° (E) 06:36:21 437.470
NUDT-PHONESAT 21 Jul 06:34:05 06:36:56 21° 95° (E) 06:39:45 437.300
PCSat 21 Jul 06:37:16 06:42:41 80° 299° (WNW) 06:48:10 145.827
SO-50 21 Jul 06:38:17 06:41:01 16° 110° (ESE) 06:43:44 436.795
KAITUO 1B 21 Jul 06:41:15 06:44:25 26° 96° (E) 06:47:36 145.475/437.950
XW-2F 21 Jul 06:48:38 06:52:12 42° 99° (E) 06:55:46 145.980 - 146.000
XW-2D 21 Jul 07:13:50 07:17:36 81° 285° (WNW) 07:21:21 145.860 - 145.880
STRAND 1 21 Jul 07:19:57 07:25:03 64° 73° (ENE) 07:30:10 437.568
XW-2B 21 Jul 07:23:48 07:27:31 62° 285° (WNW) 07:31:13 145.730 - 145.750
XW-2A 21 Jul 07:32:37 07:33:25 11° 92° (E) 07:34:12 145.665 - 145.685
FO-29 21 Jul 07:36:01 07:38:42 12° 50° (NE) 07:41:24 435.910
AO-7 21 Jul 07:37:33 07:39:46 11° 318° (NW) 07:41:59 .
XW-2C 21 Jul 07:41:06 07:44:34 36° 288° (WNW) 07:48:02 145.795 - 145.815
DOVE 4 21 Jul 07:43:29 07:47:35 23° 295° (WNW) 07:51:38 437.250
HO-68 21 Jul 07:47:42 07:54:25 42° 98° (E) 08:01:05 435.675
CUTE 1.7 + AOD 2 21 Jul 07:54:57 07:59:00 42° 98° (E) 08:03:02 437.475
UWE-3 21 Jul 07:56:26 07:58:05 12° 90° (E) 07:59:43 435.000/436.395/437.385
LilacSat-2 21 Jul 07:59:32 08:02:28 22° 291° (WNW) 08:05:23 437.200
CUTE-I 21 Jul 08:07:10 08:12:11 41° 291° (WNW) 08:17:09 437.470
NUDT-PHONESAT 21 Jul 08:07:48 08:10:45 23° 290° (WNW) 08:13:41 437.300
KAITUO 1B 21 Jul 08:15:36 08:18:15 19° 291° (WNW) 08:20:55 145.475/437.950
SEEDS 21 Jul 08:16:04 08:20:07 46° 99° (E) 08:24:11 437.485
SO-50 21 Jul 08:16:34 08:21:01 55° 306° (NW) 08:25:29 436.795
ZACube-1 21 Jul 08:20:34 08:22:13 12° 90° (E) 08:23:52 437.345
YUBILEINY 21 Jul 08:22:13 08:29:24 30° 277° (W) 08:36:34 435.215
CUBEBUG 2 21 Jul 08:23:05 08:27:13 43° 98° (E) 08:31:13 437.445
PCSat 21 Jul 08:24:01 08:26:58 15° 319° (NW) 08:29:57 145.827
XW-2F 21 Jul 08:24:12 08:25:57 13° 294° (WNW) 08:27:43 145.980 - 146.000
TIGRISAT 21 Jul 08:47:18 08:49:04 12° 62° (ENE) 08:50:50 435.000
Oscar 11 21 Jul 08:53:41 08:56:56 21° 94° (E) 09:00:11 .
STRAND 1 21 Jul 09:01:49 09:04:38 15° 269° (W) 09:07:30 437.568
AO-73 21 Jul 09:01:50 09:05:35 32° 97° (E) 09:09:17 145.935
XW-2A 21 Jul 09:03:13 09:06:19 36° 287° (WNW) 09:09:23 145.665 - 145.685
M-CUBED/EXP-1 PRIME 21 Jul 09:12:15 09:13:59 13° 58° (ENE) 09:15:46 437.505
AAUSAT CUBESAT 2 21 Jul 09:13:21 09:17:31 84° 285° (WNW) 09:21:42 437.432
FO-29 21 Jul 09:14:45 09:22:00 57° 69° (ENE) 09:29:39 435.910
PRISM 21 Jul 09:20:35 09:23:44 22° 67° (ENE) 09:26:55 437.425
UWE-3 21 Jul 09:30:46 09:34:54 52° 287° (WNW) 09:38:55 435.000/436.395/437.385
CUTE 1.7 + AOD 2 21 Jul 09:31:49 09:34:29 17° 294° (WNW) 09:37:10 437.475
UNISAT 6 21 Jul 09:35:14 09:39:35 40° 72° (ENE) 09:43:54 437.425
HO-68 21 Jul 09:35:35 09:42:01 38° 296° (WNW) 09:48:27 435.675
SEEDS 21 Jul 09:52:58 09:55:25 15° 295° (WNW) 09:57:51 437.485
ZACube-1 21 Jul 09:54:46 09:58:50 51° 286° (WNW) 10:02:50 437.345
CUBEBUG 2 21 Jul 10:00:47 10:03:26 16° 295° (WNW) 10:06:02 437.445
TIGRISAT 21 Jul 10:20:27 10:25:08 75° 258° (WSW) 10:29:46 435.000
Oscar 11 21 Jul 10:29:15 10:33:08 33° 289° (WNW) 10:36:58 .
AO-73 21 Jul 10:38:35 10:41:35 20° 293° (WNW) 10:44:35 145.935
M-CUBED/EXP-1 PRIME 21 Jul 10:44:37 10:47:57 43° 256° (WSW) 10:51:34 437.505
POLYITAN 1 21 Jul 10:54:05 10:56:40 16° 65° (ENE) 10:59:15 437.675
PRISM 21 Jul 10:55:17 10:58:50 29° 263° (W) 11:02:26 437.425
EO-88 21 Jul 10:55:23 10:59:02 84° 104° (ESE) 11:02:39 145.990 - 145.960
DELFI C3 21 Jul 10:56:35 11:00:32 59° 285° (WNW) 11:04:28 145.870
DUCHIFAT 1 21 Jul 10:58:43 11:00:57 14° 64° (ENE) 11:03:12 145.980
FO-29 21 Jul 11:00:54 11:07:17 31° 268° (W) 11:14:03 435.910
QB50P2 21 Jul 11:05:55 11:09:17 23° 68° (ENE) 11:12:39 145.880/145.840
UNISAT 6 21 Jul 11:12:57 11:16:23 20° 267° (W) 11:19:50 437.425
AIST 2D 21 Jul 11:13:54 11:17:18 51° 75° (ENE) 11:20:41 435.315
LO-87 21 Jul 11:15:10 11:17:31 16° 93° (E) 11:19:52 145.935 - 145.965
EO-79 21 Jul 11:19:12 11:22:53 29° 70° (ENE) 11:26:34 145.935-145.965
NANOSAT C BR1 21 Jul 11:22:13 11:25:50 28° 69° (ENE) 11:29:29 145.865
BUGSAT 1 21 Jul 11:45:16 11:47:23 14° 64° (ENE) 11:49:28 437.445
NO-84 21 Jul 11:53:29 11:55:41 18° 126° (SE) 11:58:01 435.350 FM
POLYITAN 1 21 Jul 12:27:56 12:32:04 46° 261° (W) 12:36:11 437.675
ESTCUBE 1 21 Jul 12:30:29 12:35:01 81° 104° (ESE) 12:39:32 437.505/2401.250
DUCHIFAT 1 21 Jul 12:32:02 12:36:10 52° 260° (W) 12:40:20 145.980
QB50P2 21 Jul 12:41:08 12:44:54 30° 264° (W) 12:48:42 145.880/145.840
LO-87 21 Jul 12:47:51 12:50:59 28° 289° (WNW) 12:54:06 145.935 - 145.965
EO-79 21 Jul 12:55:10 12:58:37 23° 265° (W) 13:02:04 145.935-145.965
NANOSAT C BR1 21 Jul 12:58:02 13:01:30 24° 265° (W) 13:04:59 145.865
50 SAT 21 Jul 12:58:45 12:59:47 11° 92° (E) 13:00:47 437.505
AO-7 21 Jul 13:01:47 13:03:58 11° 42° (NE) 13:06:10 .
Gurwin Techsat 1B 21 Jul 13:01:49 13:06:10 26° 65° (ENE) 13:10:31 435.225
Oscar 19 21 Jul 13:09:33 13:14:25 46° 71° (ENE) 13:19:18 437.125/150
BUGSAT 1 21 Jul 13:18:05 13:22:15 55° 260° (W) 13:26:26 437.445
SPROUT 21 Jul 13:22:54 13:27:12 77° 103° (ESE) 13:31:27 437.525
NO-84 21 Jul 13:29:56 13:32:53 36° 325° (NW) 13:36:06 435.350 FM
VELOX 1 21 Jul 13:35:06 13:39:36 87° 103° (ESE) 13:44:04 145.980
PCSat 21 Jul 13:43:54 13:46:38 14° 40° (NE) 13:49:21 145.827
AO-85 21 Jul 13:49:43 13:53:41 60° 119° (ESE) 13:57:33 145.980
DX 1 21 Jul 13:54:40 13:58:51 42° 99° (E) 14:02:59 434.975-435.025
BEESAT 3 21 Jul 13:56:34 14:00:30 66° 119° (ESE) 14:04:31 437.485
ESTCUBE 1 21 Jul 14:10:11 14:11:08 11° 299° (WNW) 14:12:06 437.505/2401.250
BEESAT 2 21 Jul 14:26:40 14:30:27 45° 117° (ESE) 14:34:19 435.950
RS-15 21 Jul 14:27:47 14:31:50 12° 93° (E) 14:35:54 29.354- 29.394
50 SAT 21 Jul 14:29:28 14:32:41 38° 287° (WNW) 14:35:53 437.505
Gurwin Techsat 1B 21 Jul 14:40:56 14:45:53 40° 262° (W) 14:50:53 435.225
UKube-1 21 Jul 14:46:03 14:50:24 78° 283° (WNW) 14:54:43 .
AO-7 21 Jul 14:46:48 14:54:43 50° 64° (ENE) 15:02:41 .
Oscar 19 21 Jul 14:50:13 14:53:57 20° 267° (W) 14:57:42 437.125/150
ITAMSAT 1 21 Jul 14:52:00 14:56:39 34° 68° (ENE) 15:01:19 435.822/435.867
ITUPSAT 1 21 Jul 14:54:09 14:55:57 12° 90° (E) 14:57:45 437.325
SO-50 21 Jul 15:08:39 15:11:34 17° 42° (NE) 15:14:29 436.795
NO-84 21 Jul 15:10:22 15:11:17 11° 346° (NNW) 15:12:13 435.350 FM
O/OREOS (USA 219) 21 Jul 15:20:11 15:22:58 16° 100° (E) 15:25:44 437.305
PCSat 21 Jul 15:25:32 15:30:59 75° 60° (ENE) 15:36:23 145.827
DX 1 21 Jul 15:31:42 15:34:41 18° 295° (WNW) 15:37:40 434.975-435.025
AO-85 21 Jul 15:32:12 15:34:25 14° 317° (NW) 15:36:36 145.980
BEESAT 3 21 Jul 15:36:15 15:38:30 14° 318° (NW) 15:40:46 437.485
BEESAT 2 21 Jul 16:05:34 16:08:26 19° 315° (NW) 16:11:20 435.950
BEESAT 21 Jul 16:19:05 16:23:52 85° 282° (WNW) 16:28:36 436.000
MOZHAYETS 4 21 Jul 16:19:30 16:24:04 75° 102° (ESE) 16:28:37
ITUPSAT 1 21 Jul 16:29:29 16:34:14 68° 286° (WNW) 16:38:56 437.325
RS-15 21 Jul 16:29:46 16:41:38 63° 113° (ESE) 16:53:42 29.354- 29.394
ITAMSAT 1 21 Jul 16:31:33 16:36:05 30° 264° (W) 16:40:39 435.822/435.867
AO-7 21 Jul 16:40:03 16:47:36 37° 262° (W) 16:55:14 .
CUBESAT XI-V 21 Jul 16:43:21 16:47:13 26° 95° (E) 16:51:06 437.345
SO-50 21 Jul 16:47:58 16:52:30 71° 240° (WSW) 16:57:03 436.795
O/OREOS (USA 219) 21 Jul 16:57:38 17:01:58 45° 296° (WNW) 17:06:17 437.305
LilacSat-2 21 Jul 17:08:10 17:09:46 12° 65° (ENE) 17:11:22 437.200
DOVE 4 21 Jul 17:09:48 17:14:16 41° 70° (ENE) 17:18:59 437.250
PCSat 21 Jul 17:10:52 17:13:41 14° 257° (WSW) 17:16:29 145.827
KAITUO 1B 21 Jul 17:22:17 17:23:56 13° 66° (ENE) 17:25:36 145.475/437.950
XW-2F 21 Jul 17:29:39 17:32:23 19° 69° (ENE) 17:35:07 145.980 - 146.000
KKS-1 21 Jul 17:30:45 17:35:02 43° 99° (E) 17:39:16 437.445
YUBILEINY 21 Jul 17:35:34 17:38:03 11° 73° (ENE) 17:40:33 435.215
CUTE-I 21 Jul 17:48:49 17:53:46 40° 69° (ENE) 17:58:45 437.470
XW-2D 21 Jul 17:54:24 17:57:58 42° 73° (ENE) 18:01:32 145.860 - 145.880
MOZHAYETS 4 21 Jul 17:59:05 18:00:35 11° 299° (WNW) 18:02:04
XW-2B 21 Jul 18:04:12 18:07:52 54° 75° (ENE) 18:11:34 145.730 - 145.750
STARS 21 Jul 18:12:09 18:16:27 50° 100° (E) 18:20:43 437.465
HO-68 21 Jul 18:16:21 18:22:25 31° 61° (ENE) 18:28:30 435.675
CUBESAT XI-V 21 Jul 18:20:28 18:24:35 31° 290° (WNW) 18:28:41 437.345
XW-2C 21 Jul 18:21:14 18:24:59 87° 253° (WSW) 18:28:46 145.795 - 145.815
NO-84 21 Jul 18:25:56 18:28:59 21° 28° (NNE) 18:32:12 435.350 FM
LilacSat-2 21 Jul 18:39:59 18:43:38 45° 261° (W) 18:47:17 437.200
RS-15 21 Jul 18:43:06 18:54:43 46° 317° (NW) 19:06:28 29.354- 29.394
NUDT-PHONESAT 21 Jul 18:45:34 18:49:12 56° 260° (W) 18:52:50 437.300
CUTE 1.7 + AOD 2 21 Jul 18:47:17 18:50:52 28° 70° (ENE) 18:54:29 437.475
DOVE 4 21 Jul 18:48:29 18:52:06 22° 268° (W) 18:55:55 437.250
UWE-3 21 Jul 18:53:27 18:55:05 12° 63° (ENE) 18:56:42 435.000/436.395/437.385
KAITUO 1B 21 Jul 18:54:02 18:57:34 42° 261° (W) 19:01:05 145.475/437.950
XW-2F 21 Jul 19:03:09 19:06:21 26° 264° (W) 19:09:33 145.980 - 146.000
SEEDS 21 Jul 19:07:21 19:10:57 29° 70° (ENE) 19:14:35 437.485
KKS-1 21 Jul 19:08:10 19:11:15 18° 295° (WNW) 19:14:18 437.445
ZACube-1 21 Jul 19:16:48 19:18:03 11° 63° (ENE) 19:19:18 437.345
CUBEBUG 2 21 Jul 19:20:03 19:24:23 37° 71° (ENE) 19:28:41 437.445
YUBILEINY 21 Jul 19:24:19 19:33:03 68° 92° (E) 19:41:48 435.215
CUTE-I 21 Jul 19:29:28 19:33:54 26° 265° (W) 19:38:22 437.470
XW-2D 21 Jul 19:30:48 19:32:20 12° 268° (W) 19:33:53 145.860 - 145.880
STRAND 1 21 Jul 19:31:36 19:35:33 22° 94° (E) 19:39:29 437.568
XW-2A 21 Jul 19:33:22 19:36:44 58° 75° (ENE) 19:40:04 145.665 - 145.685
Oscar 11 21 Jul 19:48:44 19:51:22 16° 65° (ENE) 19:54:00 .
STARS 21 Jul 19:49:44 19:52:21 16° 296° (WNW) 19:54:58 437.465
AO-73 21 Jul 19:56:43 20:00:24 26° 69° (ENE) 20:04:03 145.935
AAUSAT CUBESAT 2 21 Jul 20:02:36 20:06:37 57° 75° (ENE) 20:10:39 437.432
NO-84 21 Jul 20:02:49 20:06:50 73° 225° (SW) 20:11:05 435.350 FM
HO-68 21 Jul 20:02:49 20:09:47 53° 259° (W) 20:16:48 435.675
CUTE 1.7 + AOD 2 21 Jul 20:23:21 20:26:41 23° 266° (W) 20:30:02 437.475
UWE-3 21 Jul 20:26:18 20:30:55 74° 258° (WSW) 20:35:29 435.000/436.395/437.385
SEEDS 21 Jul 20:43:27 20:46:38 21° 266° (W) 20:49:51 437.485
ZACube-1 21 Jul 20:49:14 20:53:44 75° 259° (W) 20:58:09 437.345
CUBEBUG 2 21 Jul 20:57:23 21:01:04 22° 266° (W) 21:04:42 437.445
RS-15 21 Jul 21:02:31 21:11:37 23° 350° (N) 21:20:37 29.354- 29.394
STRAND 1 21 Jul 21:10:04 21:14:53 42° 290° (WNW) 21:19:40 437.568
nSIGHT-1 21 Jul 21:17:24 21:18:52 13° 129° (SE) 21:20:19 .
Oscar 11 21 Jul 21:22:59 21:27:07 45° 261° (W) 21:31:16 .
YUBILEINY 21 Jul 21:23:28 21:30:34 26° 293° (WNW) 21:37:43 435.215
EO-88 21 Jul 21:32:39 21:35:54 31° 72° (ENE) 21:39:09 145.990 - 145.960
AO-73 21 Jul 21:32:41 21:36:32 28° 264° (W) 21:40:20 145.935
DELFI C3 21 Jul 21:41:00 21:44:53 69° 76° (ENE) 21:48:49 145.870
AAUSAT CUBESAT 2 21 Jul 21:41:26 21:42:25 11° 270° (W) 21:43:24 437.432
Tancredo 1 21 Jul 21:47:27 21:50:22 73° 142° (SE) 21:53:19 437.200
ISS 21 Jul 22:06:06 22:09:08 38° 137° (SE) 22:12:12 437.550
FO-29 21 Jul 22:10:44 22:17:48 51° 97° (E) 22:24:03 435.910
TIGRISAT 21 Jul 22:13:10 22:16:35 22° 94° (E) 22:19:55 435.000
BEESAT 3 21 Jul 22:13:47 22:17:28 33° 51° (NE) 22:21:04 437.485
AO-85 21 Jul 22:20:29 22:24:32 45° 54° (NE) 22:28:50 145.980
M-CUBED/EXP-1 PRIME 21 Jul 22:24:05 22:26:16 13° 96° (E) 22:28:28 437.505
PRISM 21 Jul 22:36:18 22:40:10 36° 98° (E) 22:44:00 437.425
BEESAT 2 21 Jul 22:44:44 22:48:11 26° 49° (NE) 22:51:36 435.950
nSIGHT-1 21 Jul 22:51:39 22:54:52 67° 326° (NW) 22:58:05 .
UNISAT 6 21 Jul 23:03:36 23:07:59 89° 288° (WNW) 23:12:16 437.425
EO-88 21 Jul 23:07:28 23:09:39 15° 267° (W) 23:11:50 145.990 - 145.960
RS-15 21 Jul 23:19:45 23:29:54 28° 26° (NNE) 23:39:40 29.354- 29.394
LO-87 21 Jul 23:22:30 23:26:07 81° 258° (WSW) 23:29:47 145.935 - 145.965
Tancredo 1 21 Jul 23:23:58 23:26:05 18° 339° (NNW) 23:28:12 437.200
ESTCUBE 1 21 Jul 23:29:15 23:33:40 69° 75° (ENE) 23:38:08 437.505/2401.250
ISS 21 Jul 23:42:49 23:45:41 27° 334° (NNW) 23:48:32 437.550
TIGRISAT 21 Jul 23:49:28 23:53:17 30° 290° (WNW) 23:57:01 435.000
BEESAT 3 21 Jul 23:51:48 23:54:49 21° 248° (WSW) 23:57:48 437.485
FO-29 21 Jul 23:56:12 00:02:26 31° 298° (WNW) 00:08:06 435.910
M-CUBED/EXP-1 PRIME 21 Jul 23:56:26 00:00:58 66° 290° (WNW) 00:05:35 437.505
AO-85 22 Jul 00:01:42 00:04:40 18° 248° (WSW) 00:07:44 145.980
AIST 2D 22 Jul 00:12:06 00:15:35 69° 102° (ESE) 00:19:03 435.315
PRISM 22 Jul 00:12:14 00:15:10 19° 294° (WNW) 00:18:05 437.425
POLYITAN 1 22 Jul 00:13:16 00:16:53 27° 96° (E) 00:20:28 437.675
SPROUT 22 Jul 00:15:22 00:19:33 54° 73° (ENE) 00:23:45 437.525
DUCHIFAT 1 22 Jul 00:16:43 00:20:08 24° 95° (E) 00:23:30 145.980
BEESAT 2 22 Jul 00:22:22 00:25:55 29° 246° (WSW) 00:29:25 435.950
QB50P2 22 Jul 00:25:46 00:29:47 42° 99° (E) 00:33:46 145.880/145.840
nSIGHT-1 22 Jul 00:29:37 00:31:45 16° 344° (NNW) 00:33:53 .
VELOX 1 22 Jul 00:31:30 00:35:54 72° 74° (ENE) 00:40:20 145.980
EO-79 22 Jul 00:39:07 00:43:16 55° 100° (E) 00:47:22 145.935-145.965
NANOSAT C BR1 22 Jul 00:41:39 00:45:47 53° 100° (E) 00:49:51 145.865
DX 1 22 Jul 00:49:40 00:53:35 34° 70° (ENE) 00:57:33 434.975-435.025
50 SAT 22 Jul 00:59:53 01:03:13 61° 75° (ENE) 01:06:36 437.505
BUGSAT 1 22 Jul 01:00:52 01:03:59 21° 94° (E) 01:07:03 437.445
ESTCUBE 1 22 Jul 01:09:59 01:10:56 11° 271° (W) 01:11:53 437.505/2401.250
ISS 22 Jul 01:21:32 01:22:59 12° 354° (N) 01:24:26 437.550
Oscar 19 22 Jul 01:22:30 01:25:45 17° 92° (E) 01:29:00 437.125/150
O/OREOS (USA 219) 22 Jul 01:28:50 01:32:48 30° 60° (ENE) 01:36:46 437.305
RS-15 22 Jul 01:32:50 01:45:01 73° 54° (NE) 01:56:30 29.354- 29.394
UKube-1 22 Jul 01:39:37 01:43:55 83° 74° (ENE) 01:48:16 .
POLYITAN 1 22 Jul 01:49:10 01:52:33 24° 292° (WNW) 01:55:54 437.675
BEESAT 22 Jul 01:50:32 01:52:25 12° 60° (ENE) 01:54:18 436.000
DUCHIFAT 1 22 Jul 01:52:12 01:55:44 27° 291° (WNW) 01:59:16 145.980
SPROUT 22 Jul 01:53:49 01:55:45 13° 269° (W) 01:57:42 437.525
ITUPSAT 1 22 Jul 02:00:17 02:03:00 15° 62° (ENE) 02:05:43 437.325
QB50P2 22 Jul 02:02:33 02:05:14 17° 295° (WNW) 02:07:53 145.880/145.840
nSIGHT-1 22 Jul 02:07:53 02:09:11 12° 4° (N) 02:10:30 .
EO-79 22 Jul 02:16:33 02:18:32 13° 297° (WNW) 02:20:30 145.935-145.965
NANOSAT C BR1 22 Jul 02:18:56 02:21:01 14° 296° (WNW) 02:23:06 145.865
DX 1 22 Jul 02:26:35 02:29:50 20° 266° (W) 02:33:07 434.975-435.025
BUGSAT 1 22 Jul 02:35:45 02:39:22 30° 290° (WNW) 02:42:54 437.445
Tancredo 1 22 Jul 02:36:50 02:38:49 16° 19° (NNE) 02:40:49 437.200
AO-7 22 Jul 02:51:25 02:55:20 14° 88° (E) 02:59:12 .
Gurwin Techsat 1B 22 Jul 02:56:59 03:02:21 84° 104° (ESE) 03:07:40 435.225
ISS 22 Jul 02:58:29 03:00:31 15° 15° (NNE) 03:02:33 437.550
Oscar 19 22 Jul 03:00:22 03:05:25 57° 288° (WNW) 03:10:28 437.125/150
ITAMSAT 1 22 Jul 03:07:31 03:09:01 11° 89° (E) 03:10:30 435.822/435.867
O/OREOS (USA 219) 22 Jul 03:08:24 03:12:04 25° 257° (WSW) 03:15:44 437.305
MOZHAYETS 4 22 Jul 03:20:35 03:25:08 67° 75° (ENE) 03:29:41
BEESAT 22 Jul 03:24:45 03:29:31 78° 257° (WSW) 03:34:19 436.000
ITUPSAT 1 22 Jul 03:35:33 03:40:18 61° 259° (W) 03:45:03 437.325
nSIGHT-1 22 Jul 03:43:45 03:46:29 24° 24° (NNE) 03:49:12 .
CUBESAT XI-V 22 Jul 03:46:25 03:50:05 24° 67° (ENE) 03:53:46 437.345
RS-15 22 Jul 03:46:29 03:56:22 32° 257° (WSW) 04:05:52 29.354- 29.394
Tancredo 1 22 Jul 04:11:37 04:14:36 89° 216° (SW) 04:17:34 437.200
KKS-1 22 Jul 04:28:11 04:32:18 38° 70° (ENE) 04:36:28 437.445
ISS 22 Jul 04:34:19 04:37:32 56° 33° (NNE) 04:40:45 437.550
Gurwin Techsat 1B 22 Jul 04:39:05 04:41:32 13° 301° (WNW) 04:43:59 435.225
AO-7 22 Jul 04:40:54 04:49:19 77° 107° (ESE) 04:57:39 .
ITAMSAT 1 22 Jul 04:43:51 04:49:05 83° 285° (WNW) 04:54:16 435.822/435.867
MOZHAYETS 4 22 Jul 05:01:15 05:02:43 11° 270° (W) 05:04:11
STARS 22 Jul 05:08:01 05:12:12 42° 71° (ENE) 05:16:24 437.465
DOVE 4 22 Jul 05:10:40 05:13:08 13° 88° (E) 05:15:34 437.250
nSIGHT-1 22 Jul 05:19:54 05:23:02 48° 221° (SW) 05:26:09 .
CUBESAT XI-V 22 Jul 05:23:11 05:27:17 32° 263° (W) 05:31:25 437.345
YUBILEINY 22 Jul 05:35:31 05:43:13 33° 70° (ENE) 05:50:48 435.215
